TIME,DELAY(SENSOR),PRES,OXYGEN,RAWTEMP,T(OPTODE),TCPHASE,FLUOR,BETA(BETA700),BETA(BETA412),BETA(BETA440),CDOM,C(CSC),ED(ED412.40),ED(ED444.00),ED(ED489.70),ED(ED554.30),LU(LU411.80),LU(LU443.40),LU(LU489.60),LU(LU554.10),COMP,TILTX,TILTY,CHECK
1383710048,5809,874.5599975585938000,53.2340087890625000,660.1530761718750000,4.6229319572448730,53.1052894592285160,52,98,86,78,78,15283,2147754285,2147422738,2148013421,2147875565,2147636955,2147051949,2148259300,2147196644,2270,3,13,50192
1383713644,5810,955.3400268554688000,56.6411705017089840,668.8380737304688000,4.3365731239318850,52.7646293640136700,53,98,83,76,79,15281,2147751670,2147424457,2148013449,2147873517,2147639241,2147054692,2148259803,2147200402,231,4,13,16101
1383717244,5808,977.5399780273438000,58.3129501342773440,672.2053833007812000,4.2253189086914060,52.5875587463378900,53,96,85,79,78,15285,2147753718,2147425325,2148010404,2147872868,2147642130,2147047661,2148263451,2147200246,513,4,13,14714
1383720844,5812,983.2800292968750000,58.3875808715820300,671.8535766601562000,4.2369480133056640,52.5729408264160160,52,96,83,79,79,15283,2147753508,2147424438,2148017974,2147873024,2147640758,2147053586,2148261330,2147196836,21,4,13,61838
1383724444,5810,983.6500244140625000,58.1152496337890600,672.4124145507812000,4.2184729576110840,52.6184196472168000,54,98,81,78,78,15240,2147753344,2147422546,2148013869,2147871460,2147638016,2147051931,2148261705,2147199698,673,4,13,51979
1383728044,5810,988.1799926757812000,58.2206001281738300,672.4771728515625000,4.2163300514221190,52.6059303283691400,52,97,85,77,78,15239,2147754505,2147423414,2148015789,2147874322,2147638857,2147057325,2148263981,2147197193,196,4,13,29640
1383731644,5808,991.1900024414062000,58.3779907226562500,673.2514038085938000,4.1907310485839840,52.5939102172851560,53,95,82,78,78,15237,2147755629,2147426898,2148015296,2147873801,2147637769,2147047780,2148262134,2147197485,3593,3,13,60593
1383735244,5809,996.5999755859375000,58.4079017639160160,673.1392822265625000,4.1944389343261720,52.5909614562988300,51,96,80,79,78,15240,2147754806,2147425901,2148015076,2147878592,2147638134,2147048749,2148258569,2147199195,268,4,13,33390
1383738844,5810,1004.0700073242188000,57.5520896911621100,671.4956054687500000,4.2487788200378420,52.6767616271972660,52,100,82,79,78,15238,2147755264,2147424265,2148013814,2147872512,2147641993,2147049728,2148268690,2147201462,62,4,13,62798
1383742444,5804,1001.4199829101562000,57.4876098632812500,672.3402709960938000,4.2208580970764160,52.6960983276367200,51,96,79,78,78,15239,2147752749,2147420964,2148015387,2147870665,2147637531,2147054592,2148259803,2147197741,3309,3,13,1258
1383746044,5810,1006.2600097656250000,57.6010894775390600,672.0848999023438000,4.2293000221252440,52.6789398193359400,52,97,87,78,78,15235,2147755849,2147428662,2148012955,2147872877,2147640804,2147047725,2148265444,2147198445,3400,4,13,56683
1383749644,5810,1004.9699707031250000,57.6622200012207000,671.6444091796875000,4.2438621520996090,52.6679611206054700,51,96,87,78,77,15236,2147753974,2147419712,2148012964,2147872768,2147640109,2147051684,2148261394,2147203995,2911,4,13,16526
1383753244,5809,996.2199707031250000,57.3942413330078100,672.2479858398438000,4.2239089012146000,52.7099304199218750,51,97,84,82,78,15240,2147753974,2147426560,2148014381,2147875867,2147639350,2147057600,2148265581,2147195968,456,4,13,46353
1383756844,5810,1001.2600097656250000,58.3141288757324200,673.9987792968750000,4.1660118103027340,52.6124305725097660,52,96,85,79,78,15235,2147754605,2147421220,2148014921,2147871396,2147639396,2147056246,2148267666,2147202550,481,3,13,32893
1383760444,5814,1005.8599853515625000,57.7786788940429700,673.4127807617188000,4.1853938102722170,52.6761283874511700,52,98,82,78,78,15239,2147757257,2147425563,2148014016,2147876251,2147642340,2147051510,2148262546,2147199542,32,4,13,45856
1383764044,5807,998.8300170898438000,57.7601394653320300,673.2990722656250000,4.1891541481018070,52.6761894226074200,53,95,87,80,78,15236,2147754678,2147426660,2148012352,2147873325,2147636525,2147051913,2148265124,2147200237,3463,4,13,6436
1383767644,5808,998.4799804687500000,57.6901512145996100,673.3107910156250000,4.1887679100036620,52.6879882812500000,52,97,82,78,79,15241,2147754422,2147423460,2148013961,2147873444,2147635986,2147052315,2148266843,2147199853,3478,4,13,16214
1383771244,5810,1004.5999755859375000,57.9618492126464840,672.8663940429688000,4.2034649848937990,52.6439208984375000,51,96,81,77,78,15237,2147750811,2147423497,2148016009,2147876288,2147639369,2147052205,2148268534,2147199570,430,4,13,28665
1383774844,5807,1003.1199951171875000,57.2361106872558600,673.2944946289062000,4.1893057823181150,52.7408714294433600,51,97,83,78,79,15240,2147752886,2147423588,2148015561,2147877238,2147639835,2147051090,2148262208,2147198619,187,4,13,1611
1383778444,5809,1004.1900024414062000,57.4105110168457000,672.9899291992188000,4.1993789672851560,52.7176513671875000,52,96,79,78,78,15238,2147753362,2147427958,2148013723,2147876352,2147637696,2147054985,2148264667,2147199076,394,4,13,59781
1383782044,5810,1005.1199951171875000,57.6412887573242200,672.5222167968750000,4.2148461341857910,52.6801795959472660,52,98,85,78,78,15239,2147752539,2147426294,2148014235,2147874249,2147637897,2147052699,2148265563,2147199570,205,4,13,55113
1383785644,5810,1011.1400146484375000,57.3908386230468750,672.5037231445312000,4.2154560089111330,52.7112388610839840,52,95,86,78,78,15232,2147753371,2147424420,2148016356,2147873353,2147635510,2147056164,2148265947,2147201618,22,4,13,10236
1383789244,5811,1009.9699707031250000,57.5283889770507800,672.4052734375000000,4.2187080383300780,52.6914100646972660,52,95,84,78,79,15232,2147756544,2147421083,2148015488,2147876242,2147637037,2147055424,2148259309,2147196836,3441,4,13,51673
1383792844,5811,1010.1099853515625000,57.3876686096191400,672.1099853515625000,4.2284722328186035,52.7091293334960940,53,100,87,77,78,15224,2147757257,2147423689,2148016146,2147871497,2147637440,2147050486,2148260608,2147198829,3551,3,13,31848
1383796444,5810,1008.3599853515625000,57.0376510620117200,672.3698730468750000,4.2198767662048340,52.7579612731933600,52,97,83,78,79,15225,2147753371,2147424777,2148012470,2147877339,2147639460,2147056246,2148265874,2147199561,59,4,13,2214
1383800044,5807,998.8099975585938000,57.6444015502929700,674.1522216796875000,4.1609377861022950,52.7010688781738300,52,97,85,79,78,15226,2147755766,2147423497,2148014820,2147875355,2147638418,2147049398,2148263579,2147197897,3118,4,13,39175
1383803644,5808,998.9899902343750000,57.8660316467285160,674.5490112304688000,4.1478080749511720,52.6793212890625000,52,97,84,78,79,15227,2147755337,2147424493,2148014290,2147873974,2147638080,2147047104,2148266377,2147197147,89,4,13,60262
1383807244,5807,999.8099975585938000,58.0060005187988300,674.5474243164062000,4.1478629112243650,52.6570892333984400,51,96,86,78,79,15224,2147753280,2147424155,2148013513,2147875136,2147637970,2147051419,2148264932,2147199808,145,4,13,62700
1383810844,5809,1002.9000244140625000,58.3111114501953100,674.5518798828125000,4.1477131843566895,52.6235389709472660,52,98,85,81,78,15226,2147753490,2147423414,2148018185,2147873755,2147638866,2147051684,2148267593,2147200813,3579,4,13,24912
1383814444,5810,1001.9199829101562000,57.2807884216308600,675.0388183593750000,4.1316027641296390,52.7577896118164060,51,217,85,78,78,15224,2147750637,2147427300,2148015195,2147872731,2147639698,2147056466,2148266194,2147196315,100,4,13,55102
1383818044,5806,998.7000122070312000,57.9811401367187500,674.9545898437500000,4.1343879699707030,52.6686210632324200,52,97,85,78,78,15227,2147753216,2147425453,2148015762,2147877376,2147639433,2147052736,2148264859,2147196361,507,4,13,56920
1383821644,5810,1007.4199829101562000,58.3069610595703100,674.6157836914062000,4.1455988883972170,52.6201896667480500,51,97,89,77,78,15226,2147753810,2147421430,2148015506,2147878957,2147635986,2147052909,2148269220,2147201792,163,3,13,15304
1383825244,5809,1012.7800292968750000,57.3884010314941400,673.5051269531250000,4.1823410987854000,52.7246589660644500,52,95,83,78,78,15224,2147751305,2147423890,2148013668,2147873069,2147637046,2147052800,2148263012,2147199661,10,4,13,49451
1383828844,5810,1009.7899780273438000,57.6888084411621100,673.9891967773438000,4.1663279533386230,52.6939201354980500,52,96,83,78,78,15211,2147755830,2147426249,2148014930,2147872685,2147640621,2147047780,2148267483,2147198573,3282,3,13,3760
1383832444,5812,1009.4400024414062000,58.2623214721679700,674.3843994140625000,4.1532549858093260,52.6222801208496100,52,95,89,78,79,15213,2147755483,2147422381,2148012653,2147875245,2147640192,2147052580,2148263515,2147197942,95,4,13,3129
1383836044,5810,1007.5300292968750000,57.6453018188476560,674.3110961914062000,4.1556801795959470,52.7028694152832000,52,97,86,80,77,15212,2147757952,2147424210,2148012745,2147873664,2147643026,2147050761,2148264155,2147198144,2596,3,13,22554
1383839644,5809,1007.2800292968750000,57.8167991638183600,673.9714965820312000,4.1669139862060550,52.6748695373535160,52,94,85,79,77,15211,2147755638,2147427136,2148012251,2147875300,2147638948,2147055094,2148259218,2147196214,85,4,13,6415
1383843244,5810,1013.0800170898438000,57.4208793640136700,674.0607299804688000,4.1639609336853030,52.7281494140625000,52,96,88,78,79,15210,2147754715,2147424219,2148012763,2147875501,2147638656,2147058605,2148261942,2147197348,3350,4,13,40093
1383846844,5810,1015.6799926757812000,57.2103309631347660,673.1572875976562000,4.1938438415527340,52.7474708557128900,52,97,85,77,77,15212,2147754386,2147422573,2148014628,2147873901,2147637568,2147054244,2148263680,2147197705,3576,4,13,22043
1383850444,5811,1017.5100097656250000,57.0212898254394500,672.4088745117188000,4.2185897827148440,52.7598495483398440,51,97,82,78,79,15210,2147753225,2147424109,2148013193,2147874898,2147637046,2147054665,2148264731,2147197357,3513,4,13,38400
1383854044,5811,1007.6599731445312000,56.9124412536621100,672.8541259765625000,4.2038707733154300,52.7780914306640600,52,95,87,78,78,15209,2147752045,2147428022,2148014144,2147871515,2147640530,2147054354,2148263771,2147200621,3448,4,13,17360
1383854155,5807,1008.1400146484375000,56.9178810119628900,672.8035278320312000,4.2055420875549320,52.7783813476562500,53,97,85,77,78,15282,2147753490,2147423862,2148015963,2147874843,2147640118,2147053083,2148266971,2147201380,3441,3,13,25523
